Weather History for Murray, KY

Change the Weather History Date:

Friday, January 3, 2014

  Actual Average (KPAH) Record (KPAH)
Temperature  
Mean Temperature 19 °F 35 °F  
Max Temperature 26 °F 43 °F 69 °F (2004)
Min Temperature 12 °F 26 °F 2 °F (1940)
Degree Days  
Heating Degree Days 46 30  
Month to date heating degree days 90  
Since 1 July heating degree days 1721  
Cooling Degree Days 0 0  
Month to date cooling degree days 0  
Year to date cooling degree days 0  
Moisture  
Dew Point 10 °F    
Average Humidity 68    
Maximum Humidity 92    
Minimum Humidity 51    
Precipitation  
Precipitation 0.00 in 0.13 in 3.97 in (2000)
Month to date precipitation 0.37  
Year to date precipitation 0.37  
Snow  
Snow 0.00 in 0.10 in 5.80 in (1985)
Month to date snowfall 0.3  
Since 1 July snowfall 2.6  
Snow Depth -    
Sea Level Pressure  
Sea Level Pressure 30.41 in    
Wind  
Wind Speed 5 mph (SE)    
Max Wind Speed 9 mph    
Max Gust Speed 18 mph    
Visibility 10 miles    
Events      
T = Trace of Precipitation, MM = Missing Value Source: NWS Daily Summary

Daily Weather History Graph

Daily Weather History Graph

Search for Another Location

Airport:

Trip Planner

Search our weather history database for the weather conditions in past years. The results will help you decide how hot, cold, wet, or windy it might be!

Date:

Astronomy

Jan. 03, 2014 Rise Set
Actual Time 7:06 AM CST 4:50 PM CST
Civil Twilight 6:37 AM CST 5:18 PM CST
Nautical Twilight 6:05 AM CST 5:51 PM CST
Astronomical Twilight 5:33 AM CST 6:22 PM CST
Moon 8:36 AM CST (1/3) 7:53 PM CST (1/3)
Length of Visible Light 10h 41m
Length of Day
9h 43m
Waxing Crescent, 8% of the Moon is Illuminated
Jan 3
Waxing Crescent
Jan 7
First Quarter
Jan 15
Full
Jan 23
Last Quarter
Jan 30
New

Hourly Weather History & Observations

Time (CST) Temp. Windchill Dew Point Humidity Pressure Visibility Wind Dir Wind Speed Gust Speed Precip Events Conditions
12:15 AM 15.8 °F 5.1 °F 10.4 °F 79% 30.43 in 10.0 mi North 8.1 mph - N/A   Clear
12:35 AM 15.8 °F 6.1 °F 10.4 °F 79% 30.43 in 10.0 mi North 6.9 mph - N/A   Clear
12:55 AM 15.8 °F 5.1 °F 10.4 °F 79% 30.44 in 10.0 mi North 8.1 mph - N/A   Clear
1:15 AM 15.8 °F 10.2 °F 10.4 °F 79% 30.45 in 10.0 mi NNW 3.5 mph - N/A   Clear
1:35 AM 15.8 °F 8.6 °F 10.4 °F 79% 30.45 in 10.0 mi North 4.6 mph - N/A   Clear
1:55 AM 14.0 °F 5.1 °F 10.4 °F 86% 30.46 in 10.0 mi North 5.8 mph - N/A   Clear
2:15 AM 14.0 °F 8.2 °F 10.4 °F 86% 30.47 in 10.0 mi North 3.5 mph - N/A   Clear
2:35 AM 14.0 °F 5.1 °F 10.4 °F 86% 30.47 in 10.0 mi NNW 5.8 mph - N/A   Partly Cloudy
2:55 AM 14.0 °F 5.1 °F 10.4 °F 86% 30.47 in 10.0 mi North 5.8 mph - N/A   Clear
3:15 AM 14.0 °F 5.1 °F 8.6 °F 79% 30.47 in 10.0 mi North 5.8 mph - N/A   Clear
3:35 AM 14.0 °F 8.2 °F 8.6 °F 79% 30.47 in 10.0 mi NW 3.5 mph - N/A   Clear
3:55 AM 14.0 °F 8.2 °F 10.4 °F 86% 30.46 in 10.0 mi NNW 3.5 mph - N/A   Clear
4:15 AM 14.0 °F 5.1 °F 8.6 °F 79% 30.45 in 10.0 mi NNE 5.8 mph - N/A   Clear
4:35 AM 12.2 °F - 8.6 °F 85% 30.46 in 10.0 mi Calm Calm - N/A   Clear
4:55 AM 12.2 °F 6.1 °F 8.6 °F 85% 30.47 in 10.0 mi NW 3.5 mph - N/A   Clear
5:15 AM 12.2 °F 4.3 °F 8.6 °F 85% 30.48 in 10.0 mi NNW 4.6 mph - N/A   Scattered Clouds
5:35 AM 12.2 °F 6.1 °F 8.6 °F 85% 30.48 in 10.0 mi NNW 3.5 mph - N/A   Partly Cloudy
5:55 AM 12.2 °F 6.1 °F 8.6 °F 85% 30.48 in 10.0 mi NNW 3.5 mph - N/A   Clear
6:15 AM 12.2 °F 6.1 °F 8.6 °F 85% 30.50 in 10.0 mi NW 3.5 mph - N/A   Mostly Cloudy
6:35 AM 12.2 °F 6.1 °F 8.6 °F 85% 30.51 in 10.0 mi NW 3.5 mph - N/A   Mostly Cloudy
6:55 AM 12.2 °F 6.1 °F 8.6 °F 85% 30.52 in 10.0 mi WNW 3.5 mph - N/A   Clear
7:15 AM 12.2 °F - 8.6 °F 85% 30.51 in 10.0 mi Calm Calm - N/A   Clear
7:35 AM 12.2 °F - 8.6 °F 85% 30.52 in 10.0 mi Calm Calm - N/A   Clear
7:55 AM 12.2 °F - 10.4 °F 92% 30.53 in 10.0 mi Calm Calm - N/A   Clear
8:15 AM 14.0 °F 8.2 °F 10.4 °F 86% 30.54 in 10.0 mi NNE 3.5 mph - N/A   Clear
8:35 AM 15.8 °F 10.2 °F 10.4 °F 79% 30.54 in 10.0 mi North 3.5 mph - N/A   Clear
8:55 AM 15.8 °F - 10.4 °F 79% 30.54 in 10.0 mi Calm Calm - N/A   Clear
9:15 AM 15.8 °F - 10.4 °F 79% 30.54 in 10.0 mi Calm Calm - N/A   Clear
9:35 AM 17.6 °F - 12.2 °F 79% 30.54 in 10.0 mi Calm Calm - N/A   Clear
9:55 AM 17.6 °F 12.3 °F 12.2 °F 79% 30.53 in 10.0 mi East 3.5 mph - N/A   Clear
10:15 AM 19.4 °F 12.8 °F 10.4 °F 68% 30.53 in 10.0 mi SE 4.6 mph - N/A   Clear
10:35 AM 21.2 °F 13.6 °F 10.4 °F 63% 30.52 in 10.0 mi ESE 5.8 mph - N/A   Clear
10:55 AM 23.0 °F 17.0 °F 10.4 °F 59% 30.51 in 10.0 mi SE 4.6 mph - N/A   Clear
11:15 AM 23.0 °F 15.8 °F 10.4 °F 59% 30.50 in 10.0 mi ESE 5.8 mph - N/A   Clear
11:35 AM 23.0 °F 13.9 °F 10.4 °F 59% 30.48 in 10.0 mi ESE 8.1 mph - N/A   Clear
11:55 AM 23.0 °F 17.0 °F 12.2 °F 63% 30.47 in 10.0 mi ESE 4.6 mph - N/A   Clear
12:15 PM 24.8 °F 16.9 °F 10.4 °F 54% 30.45 in 10.0 mi SSE 6.9 mph - N/A   Clear
12:35 PM 24.8 °F 19.1 °F 10.4 °F 54% 30.43 in 10.0 mi SSE 4.6 mph - N/A   Clear
12:55 PM 24.8 °F 16.9 °F 10.4 °F 54% 30.42 in 10.0 mi ESE 6.9 mph - N/A   Clear
1:15 PM 26.6 °F 18.2 °F 10.4 °F 51% 30.41 in 10.0 mi SE 8.1 mph - N/A   Clear
1:35 PM 26.6 °F 18.2 °F 10.4 °F 51% 30.40 in 10.0 mi SSE 8.1 mph - N/A   Clear
1:55 PM 26.6 °F 20.0 °F 12.2 °F 55% 30.41 in 10.0 mi South 5.8 mph - N/A   Clear
2:15 PM 26.6 °F 18.2 °F 10.4 °F 51% 30.41 in 10.0 mi South 8.1 mph - N/A   Clear
2:35 PM 26.6 °F 17.5 °F 10.4 °F 51% 30.40 in 10.0 mi SSE 9.2 mph - N/A   Clear
2:55 PM 26.6 °F 17.5 °F 12.2 °F 55% 30.38 in 10.0 mi South 9.2 mph - N/A   Clear
3:15 PM 26.6 °F 18.2 °F 12.2 °F 55% 30.37 in 10.0 mi SSE 8.1 mph - N/A   Clear
3:35 PM 26.6 °F 19.1 °F 10.4 °F 51% 30.36 in 10.0 mi SSE 6.9 mph 18.4 mph N/A   Clear
3:55 PM 26.6 °F 17.5 °F 10.4 °F 51% 30.36 in 10.0 mi SSE 9.2 mph 16.1 mph N/A   Clear
4:15 PM 26.6 °F 21.2 °F 14.0 °F 59% 30.36 in 10.0 mi South 4.6 mph - N/A   Clear
4:35 PM 26.6 °F 21.2 °F 10.4 °F 51% 30.35 in 10.0 mi SSE 4.6 mph - N/A   Clear
4:55 PM 26.6 °F 21.2 °F 10.4 °F 51% 30.35 in 10.0 mi South 4.6 mph - N/A   Clear
5:15 PM 24.8 °F 20.5 °F 12.2 °F 59% 30.35 in 10.0 mi SSE 3.5 mph - N/A   Clear
5:35 PM 24.8 °F 19.1 °F 10.4 °F 54% 30.34 in 10.0 mi South 4.6 mph - N/A   Clear
5:55 PM 24.8 °F 17.9 °F 12.2 °F 59% 30.33 in 10.0 mi SSE 5.8 mph - N/A   Clear
6:15 PM 24.8 °F 16.9 °F 10.4 °F 54% 30.32 in 10.0 mi South 6.9 mph - N/A   Clear
6:35 PM 24.8 °F 17.9 °F 10.4 °F 54% 30.31 in 10.0 mi South 5.8 mph - N/A   Clear
6:55 PM 24.8 °F 16.9 °F 10.4 °F 54% 30.31 in 10.0 mi SSE 6.9 mph - N/A   Clear
7:15 PM 24.8 °F 17.9 °F 10.4 °F 54% 30.30 in 10.0 mi SSE 5.8 mph - N/A   Clear
7:35 PM 24.8 °F 17.9 °F 10.4 °F 54% 30.30 in 10.0 mi SSE 5.8 mph - N/A   Clear
7:55 PM 23.0 °F 17.0 °F 10.4 °F 59% 30.29 in 10.0 mi SSE 4.6 mph - N/A   Clear
8:15 PM 23.0 °F 15.8 °F 10.4 °F 59% 30.28 in 10.0 mi SSE 5.8 mph - N/A   Clear
8:35 PM 23.0 °F 15.8 °F 10.4 °F 59% 30.28 in 10.0 mi SSE 5.8 mph - N/A   Clear
8:55 PM 23.0 °F 17.0 °F 10.4 °F 59% 30.27 in 10.0 mi SSE 4.6 mph - N/A   Clear
9:15 PM 23.0 °F 15.8 °F 12.2 °F 63% 30.26 in 10.0 mi SSE 5.8 mph - N/A   Clear
9:35 PM 23.0 °F 14.7 °F 12.2 °F 63% 30.25 in 10.0 mi SSE 6.9 mph - N/A   Clear
9:55 PM 23.0 °F 13.9 °F 12.2 °F 63% 30.25 in 10.0 mi South 8.1 mph - N/A   Clear
10:15 PM 23.0 °F 13.9 °F 12.2 °F 63% 30.24 in 10.0 mi South 8.1 mph - N/A   Clear
10:35 PM 23.0 °F 13.1 °F 12.2 °F 63% 30.24 in 10.0 mi South 9.2 mph - N/A   Clear
10:55 PM 23.0 °F 13.9 °F 10.4 °F 59% 30.23 in 10.0 mi South 8.1 mph - N/A   Clear
11:15 PM 24.8 °F 16.1 °F 10.4 °F 54% 30.23 in 10.0 mi South 8.1 mph - N/A   Clear
11:35 PM 24.8 °F 15.3 °F 10.4 °F 54% 30.23 in 10.0 mi South 9.2 mph - N/A   Clear
11:55 PM 24.8 °F 15.3 °F 10.4 °F 54% 30.22 in 10.0 mi South 9.2 mph - N/A   Clear